User: anonymous   Login
Location: Caltech
(34.1382°N, 118.1253°W)
Time: 12:49:52
(UTC-08:00)
Language:

Cosmos 1484 Rocket - Orbit

View from above orbital plane
View from above orbital plane
View from above satellite
View from above satellite

Ground track
Ground track

The orbit data is extracted from the following two-line orbital elements,

1 14208U 83075B   14353.40019801  .00004782  00000-0  30923-3 0  2003
2 14208 097.4041 023.5924 0042424 030.0709 330.2942 15.07906101710104
Epoch (UTC): 19 December 2014 09:36:17
Eccentricity: 0.0042424
inclination: 97.4041°
perigee height: 513 km
apogee height: 572 km
right ascension of ascending node: 23.5924°
argument of perigee: 30.0709°
revolutions per day: 15.07906101
mean anomaly at epoch: 330.2942°
orbit number at epoch: 71010

The dashed part of the orbit path shows where the satellite is in the earth's shadow,  

DLR